Location: DaltonSkyGazer Observatory
(42.4858°N, 73.1565°W)
Time: 16:34:44
(UTC-04:00)

Daily predictions for brighter satellites

Satellite Brightness Start Highest point End
(mag) Time Altitude Azimuth Time Altitude Azimuth Time Altitude Azimuth
Cosmos 1766 Rocket 4.1 19:39:25 10° N 19:43:38 38° ENE 19:47:49 10° SE
Cosmos 1758 3.3 19:40:05 10° S 19:43:59 58° E 19:47:57 10° NNE
Cosmos 2369 Rocket 3.9 19:45:29 10° ESE 19:46:15 10° E 19:47:02 10° E
HJ-1C 3.5 19:43:05 10° SSE 19:46:26 61° ENE 19:49:50 10° N
FENGYUN 3A 3.7 19:41:14 10° SSE 19:46:36 73° ENE 19:52:00 10° N
Cosmos 1953 2.4 19:44:48 10° S 19:48:48 61° E 19:52:48 10° NNE
Lacrosse 5 3.5 19:46:52 10° W 19:51:26 33° NNW 19:56:01 10° NE
Cosmos 1833 Rocket 2.7 19:49:59 10° NNW 19:55:39 79° ENE 20:01:16 10° SSE
GP-B 3.6 19:54:33 10° SSE 19:58:38 37° E 20:02:45 10° NNE
Cosmos 2344 4.4 19:54:12 10° SW 20:01:45 58° NW 20:10:31 10° NNE
ATLAS 5 CENTAUR R/B 1.7 19:59:30 10° SSW 20:04:11 82° SE 20:09:19 10° NE
CZ-2D R/B 3.4 20:01:34 10° SSE 20:05:20 52° ENE 20:09:09 10° N
Cosmos 1939 Rocket 4.4 20:04:26 13° ESE 20:06:51 20° ENE 20:09:53 10° NNE
Cosmos 482 Debris 2.8 20:05:05 10° NW 20:06:52 44° NNE 20:07:45 22° E
Lacrosse 5 rocket 1.1 20:03:00 10° NW 20:06:59 87° SW 20:10:29 12° SE
Cosmos 158 Rocket 4.0 20:02:13 10° NNW 20:07:25 89° WSW 20:12:42 10° SSE
Cosmos 1805 4.0 20:03:54 10° SSW 20:07:43 57° W 20:11:36 10° N
Meteor 1-29 4.3 20:05:17 10° NE 20:07:58 20° E 20:10:37 10° SE
ALOS 2.7 20:03:26 10° S 20:08:04 66° WSW 20:12:44 10° NNW
Cosmos 372 Rocket 4.0 20:03:43 10° SSW 20:08:50 90° SW 20:14:02 10° NNE
Cosmos 2278 Rocket 4.0 20:05:26 10° WSW 20:10:36 35° WNW 20:15:49 10° N
Resurs 01 Rocket 1.6 20:07:06 10° SSE 20:11:30 86° ENE 20:15:58 10° NNW
Cosmos 1743 Rocket 4.1 20:10:17 10° N 20:14:28 38° ENE 20:18:37 10° SE
Cosmos 1500 Rocket 4.5 20:10:54 10° NNE 20:14:39 28° ENE 20:17:17 16° SE
Cosmos 1733 3.2 20:11:47 10° S 20:15:35 58° E 20:19:24 10° NNE
CZ-4C R/B 3.3 20:12:12 10° SSE 20:15:51 19° ESE 20:19:47 10° ENE
USA 186 1.3 20:16:04 24° SE 20:16:56 37° ENE 20:19:02 10° N
Helios 1B rocket 2.9 20:15:10 10° NNE 20:19:03 38° E 20:22:53 10° SSE
Cosmos 2251 Rocket 4.0 20:14:19 10° N 20:19:24 43° ENE 20:23:30 15° SE
COSMOS 2487 3.8 20:17:09 10° NNW 20:20:34 42° WSW 20:23:57 10° S
BREEZE-M DEB (TANK) 3.5 20:18:55 10° NW 20:20:57 26° NNE 20:22:26 16° ENE
Cosmos 2100 Rocket 4.0 20:16:30 10° S 20:22:46 67° E 20:29:05 10° NNE
Cosmos 2151 4.1 20:19:21 10° NNE 20:22:52 24° ENE 20:24:19 20° ESE
Cosmos 1470 2.7 20:23:51 10° S 20:27:50 88° E 20:31:49 10° N
SAR-Lupe-4 3.5 20:27:04 13° SSE 20:30:14 68° ENE 20:33:49 10° N
PSLV R/B 4.3 20:28:04 10° SW 20:30:43 25° SSE 20:31:00 24° SSE
Cosmos 1408 Rocket 4.1 20:28:11 10° NNW 20:32:38 64° W 20:37:01 10° S
H-2A R/B 4.0 20:32:24 10° S 20:36:09 44° W 20:39:57 10° NNW
TIMED 4.4 20:32:54 10° SSW 20:37:16 82° ESE 20:41:40 10° NNE
Cosmos 494 Rocket 4.0 20:32:24 10° NNW 20:37:29 62° ENE 20:40:57 20° SE
YAOGAN 6 4.0 20:37:46 22° ENE 20:37:48 22° ENE 20:40:42 10° NNE
Spot 2 Rocket 4.2 20:34:35 10° S 20:39:35 56° WSW 20:44:38 10° NNW
Cosmos 2082 Rocket 3.4 20:34:47 10° NW 20:40:05 41° WSW 20:45:19 10° S
OAO 2 Rocket 4.4 20:35:47 10° SW 20:40:13 29° SSE 20:41:53 24° SE
Resurs 1-3 4.4 20:37:53 10° S 20:42:09 51° W 20:46:27 10° NNW
GPS 2-05 Rocket1 4.3 20:41:06 10° WSW 20:44:02 24° S 20:44:44 23° SSE
Cosmos 1184 Rocket 2.7 20:43:45 10° N 20:47:09 85° E 20:48:38 31° SSE
Cosmos 1340 Rocket 3.4 20:44:50 10° NNW 20:48:47 57° W 20:52:39 10° S
SAR-Lupe-1 4.1 20:46:28 20° S 20:48:50 81° WSW 20:52:26 10° NNW
Cosmos 1802 Rocket 3.9 20:42:55 10° S 20:49:04 84° E 20:55:17 10° N
Helios 1A 3.1 20:45:49 12° S 20:49:39 76° WSW 20:53:52 10° NNW
Cosmos 1842 Rocket 3.4 20:45:52 10° S 20:50:15 70° E 20:54:37 10° NNE
CZ-4B DEB 2.5 20:49:47 44° SSE 20:50:39 85° ENE 20:53:46 10° N
Cosmos 389 Rocket 2.4 20:52:52 47° SE 20:53:33 58° E 20:57:02 10° NNE
SeaSat 1 3.8 20:51:35 10° S 20:56:08 38° WSW 21:00:43 10° NW
Meteor 1-16 Rocket 4.2 20:50:43 10° S 20:56:35 75° E 21:02:31 10° NNE
Envisat 2.9 20:54:15 20° SSE 20:57:51 83° ENE 21:02:58 10° NNW
Cosmos 1356 Rocket 3.2 20:54:58 10° N 20:59:04 87° ENE 21:00:45 34° SSE
Cosmos 1271 Rocket 4.5 20:57:30 10° SW 21:01:12 35° WNW 21:04:56 10° N
Cosmos 1459 Rocket 4.4 20:56:42 10° SSW 21:02:52 65° W 21:09:00 10° N
Meteor 1-11 4.1 20:58:30 10° N 21:04:07 76° E 21:07:16 27° SSE
ISS -1.9 21:01:33 10° W 21:04:26 28° NNW 21:06:01 19° NNE
ERS-1 Rocket 3.2 21:03:09 40° ESE 21:04:32 52° ENE 21:09:25 10° N
Meteor 2-17 Rocket 4.4 20:59:45 10° S 21:05:55 86° W 21:12:06 10° N
SL-14 R/B 3.2 21:02:30 10° N 21:06:24 80° W 21:07:46 39° S
Geosat 4.1 21:04:00 10° NNE 21:09:03 80° WNW 21:14:03 10° SSW
Cosmos 2233 Rocket 4.2 21:12:07 39° SE 21:13:38 47° E 21:19:27 10° NNE
Cosmos 1626 3.4 21:13:17 10° N 21:15:34 30° NNE 21:15:34 30° NNE
Cosmos 1864 Rocket 4.4 21:14:08 10° S 21:20:29 85° E 21:26:48 10° N
MetOp-B 4.3 21:20:39 47° E 21:21:08 49° ENE 21:26:18 10° N
H-2A R/B 3.4 21:28:33 26° NE 21:28:33 26° NE 21:32:09 10° N
Cosmos 2369 Rocket 2.0 21:23:41 10° SSW 21:29:19 81° ESE 21:34:57 10° NNE
YAOGAN 11 4.4 21:29:48 56° NE 21:29:48 56° NE 21:33:50 10° N
Meteor 2-1 Rocket 4.1 21:27:08 25° S 21:30:40 85° E 21:36:20 10° N
Cosmos 2221 2.8 21:33:23 57° NNE 21:33:23 57° NNE 21:36:57 10° N
Cosmos 2058 3.1 21:28:58 10° NNW 21:33:06 68° W 21:33:12 67° WSW
Lacrosse 5 4.4 21:32:40 10° NW 21:35:48 16° N 21:38:56 10° NNE
Cosmos 1703 4.0 21:31:56 10° N 21:34:51 48° N 21:34:51 48° N
Terra 3.9 21:39:38 15° NE 21:39:38 15° NE 21:41:05 10° NNE
SPOT 5 3.2 21:40:47 61° ENE 21:40:47 61° ENE 21:45:49 10° N
Cosmos 1939 Rocket 4.3 21:40:21 30° SW 21:41:32 36° W 21:45:23 10° NNW
Cosmos 1943 Rocket 3.5 21:48:53 27° NE 21:48:53 27° NE 21:51:26 10° NNE
CZ-3B DEB 3.9 21:42:22 10° WNW 21:47:03 19° NNW 21:49:27 13° NNE
ATLAS 5 CENTAUR R/B 4.4 21:46:02 10° W 21:49:36 20° NNW 21:53:24 10° NNE
NOAA 11 4.0 21:49:56 83° ESE 21:50:06 85° ENE 21:55:38 10° NNW
H-2A R/B 4.3 21:53:32 15° NNE 21:53:32 15° NNE 21:54:31 10° N
USA 215 3.1 21:45:16 10° NE 21:51:48 70° SE 21:58:18 10° SW
Cosmos 2263 4.0 21:52:40 83° SSW 21:52:54 89° ESE 21:58:36 10° NNE
Cosmos 1805 Rocket 4.3 21:52:21 10° NNW 21:55:43 50° NNW 21:55:43 50° NNW
CZ-4C R/B 2.5 21:58:21 10° SW 22:03:37 63° NW 22:09:36 10° NNE
MetOp-A 4.4 22:07:07 64° W 22:07:07 64° W 22:12:24 10° NNW
SPOT 1/Viking Rocket 4.2 22:13:12 51° N 22:13:12 51° N 22:17:07 10° NNW
ARGOS 3.5 22:17:29 61° NW 22:17:29 61° NW 22:22:02 10° NNW
USA 267 3.7 22:24:10 50° NE 22:24:31 50° NNE 22:30:46 10° NW
Cosmos 2219 4.4 22:24:36 10° NNW 22:28:11 34° NNE 22:28:11 34° NNE
Cosmos 2297 Rocket 4.3 22:58:53 10° N 23:01:13 19° NNE 23:01:13 19° NNE
H-2A R/B 3.9 23:09:10 28° NW 23:09:10 28° NW 23:12:00 10° NNW
Terra 4.3 23:18:31 19° NNW 23:18:31 19° NNW 23:19:54 10° NNW
ATLAS 3B R/B 3.8 23:20:36 38° NNE 23:20:36 38° NNE 23:24:48 10° NNE
Lacrosse 5 4.4 23:16:57 10° NNW 23:19:04 17° N 23:19:04 17° N
Cosmos 1943 Rocket 4.2 23:30:17 24° NW 23:30:17 24° NW 23:34:32 10° N
Cosmos 2227 Rocket 4.2 23:24:57 10° NNW 23:27:14 23° N 23:27:14 23° N
USA 215 4.2 23:28:29 10° NE 23:36:09 37° WNW 23:40:39 10° W
